JDWX 2.63 27.02870 -80.1653 0.000 0.000 20200125_2030 SFWMD JDWX current weather conditions

sailwx.info

Wind from 129 at 3 knots gusting 6

Air temperature 17.4° C
Dewpoint 10.5° C
Water temperature -7999.0° C

Last reported at 2020-Jan-25 21:45 UTC.
Time now 2020-Jan-25 22:32 UTC

Location: N 27°02' W 080°10'.
View on Google Maps.

See reports from other nearby stations

  
Tides and Currents Weather Stations Pressure Air Temp Water Temp Dewpoint Dewpoint Depression Visibility Wind Speed Wind Dir Waves Ship Positions
date/time (UTC)wind fromknots sea level pressurealtimeterstation pressurevisibilityair tempwater tempwave heightnotes
2020-Jan-25 21:45 129 3 gusting 6 17.4-7999.0
2020-Jan-25 21:30 080 3 gusting 6 19.8-7999.0
2020-Jan-25 21:15 075 3 gusting 5 20.1-7999.0
2020-Jan-25 21:00 114 3 gusting 7 20.6-7999.0
2020-Jan-25 20:45 098 2 gusting 7 18.3-7999.0
2020-Jan-25 20:30 061 2 gusting 6 18.3-7999.0
2020-Jan-25 20:15 104 3 gusting 6 20.7-7999.0
2020-Jan-25 20:00 263 2 gusting 4 22.8-7999.0
2020-Jan-25 19:45 250 1 gusting 4 22.8-7999.0
2020-Jan-25 19:30 254 2 gusting 4 22.7-7999.0
2020-Jan-25 19:15 269 2 gusting 4 21.9-7999.0
2020-Jan-25 19:00 225 2 gusting 5 21.2-7999.0
2020-Jan-25 18:45 239 2 gusting 5 22.0-7999.0
2020-Jan-25 18:30 276 3 gusting 7 21.8-7999.0
2020-Jan-25 18:15 267 3 gusting 7 21.6-7999.0
2020-Jan-25 18:00 217 3 gusting 6 19.1-7999.0
2020-Jan-25 17:45 230 2 gusting 5 19.5-7999.0
2020-Jan-25 17:30 272 3 gusting 6 20.3-7999.0
2020-Jan-25 17:15 233 3 gusting 6 19.0-7999.0
2020-Jan-25 17:00 258 2 gusting 6 18.1-7999.0
2020-Jan-25 16:45 249 2 gusting 6 19.2-7999.0
2020-Jan-25 16:30 266 3 gusting 6 17.7-7999.0
2020-Jan-25 16:15 257 3 gusting 6 18.4-7999.0
2020-Jan-25 16:00 278 2 gusting 6 18.3-7999.0
2020-Jan-25 15:45 261 2 gusting 6 16.9-7999.0
2020-Jan-25 15:30 252 3 gusting 8 18.2-7999.0
2020-Jan-25 15:15 281 2 gusting 5 19.1-7999.0
2020-Jan-25 14:45 261 2 gusting 5 17.7-7999.0
2020-Jan-25 14:30 287 2 gusting 7 16.9-7999.0
2020-Jan-25 14:15 267 2 gusting 5 17.2-7999.0
2020-Jan-25 14:00 256 2 gusting 6 17.4-7999.0
2020-Jan-25 13:45 294 1 gusting 4 17.2-7999.0
2020-Jan-25 13:30 287 2 gusting 6 17.2-7999.0
2020-Jan-25 13:15 291 2 gusting 5 17.2-7999.0
2020-Jan-25 12:45 272 1 gusting 2 16.6-7999.0
2020-Jan-25 12:30 276 1 gusting 2 16.3-7999.0
2020-Jan-25 12:15 285 1 gusting 3 16.1-7999.0
2020-Jan-25 12:00 267 0 gusting 1 16.1-7999.0
2020-Jan-25 11:45 250 0 gusting 2 16.1-7999.0
2020-Jan-25 11:30 217 0 gusting 1 16.2-7999.0
2020-Jan-25 11:15 210 0 gusting 1 16.3-7999.0
2020-Jan-25 10:45 228 0 gusting 1 16.7-7999.0
2020-Jan-25 10:30 234 0 gusting 2 17.0-7999.0
2020-Jan-25 10:15 242 0 gusting 1 17.3-7999.0
2020-Jan-25 10:00 253 0 gusting 1 17.3-7999.0
2020-Jan-25 09:45 270 0 gusting 2 17.1-7999.0
2020-Jan-25 09:30 251 0 gusting 2 16.7-7999.0
2020-Jan-25 09:15 243 0 gusting 1 16.8-7999.0
2020-Jan-25 08:45 233 0 gusting 1 17.3-7999.0
2020-Jan-25 08:30 215 0 gusting 0 17.6-7999.0
2020-Jan-25 08:15 234 0 gusting 0 17.6-7999.0
2020-Jan-25 07:45 268 0 gusting 2 17.6-7999.0
2020-Jan-25 07:30 241 0 gusting 2 17.6-7999.0
2020-Jan-25 07:15 236 0 gusting 2 17.7-7999.0
2020-Jan-25 06:45 269 0 gusting 1 17.7-7999.0
2020-Jan-25 06:30 248 0 gusting 1 17.8-7999.0
2020-Jan-25 06:15 243 1 gusting 3 17.9-7999.0
2020-Jan-25 05:45 215 1 gusting 3 17.9-7999.0
2020-Jan-25 05:30 218 1 gusting 2 17.8-7999.0
2020-Jan-25 05:15 222 1 gusting 2 17.7-7999.0
2020-Jan-25 05:00 243 1 gusting 2 17.6-7999.0
2020-Jan-25 04:45 219 1 gusting 2 17.5-7999.0
2020-Jan-25 04:30 232 1 gusting 2 17.3-7999.0
2020-Jan-25 04:15 233 1 gusting 3 17.0-7999.0
2020-Jan-25 03:45 216 0 gusting 0 15.9-7999.0
2020-Jan-25 03:30 173 0 gusting 0 16.0-7999.0
2020-Jan-25 03:15 196 0 gusting 1 15.9-7999.0
2020-Jan-25 03:00 192 0 gusting 1 16.0-7999.0
2020-Jan-25 02:45 154 0 gusting 0 15.9-7999.0
2020-Jan-25 02:30 154 15.9-7999.0
2020-Jan-25 02:15 154 15.9-7999.0
2020-Jan-25 02:00 154 16.2-7999.0
2020-Jan-25 01:45 154 16.2-7999.0
2020-Jan-25 01:30 154 16.4-7999.0
2020-Jan-25 01:15 154 16.6-7999.0
2020-Jan-25 00:45 154 16.9-7999.0
2020-Jan-25 00:30 154 17.1-7999.0
2020-Jan-25 00:15 154 17.4-7999.0
2020-Jan-25 00:00 154 0 gusting 0 17.6-7999.0
2020-Jan-24 23:45 154 0 gusting 0 18.0-7999.0
2020-Jan-24 23:30 154 18.3-7999.0
2020-Jan-24 23:15 154 18.9-7999.0
2020-Jan-24 23:00 154 19.5-7999.0
2020-Jan-24 22:45 154 20.1-7999.0
2020-Jan-24 22:15 125 0 gusting 1 21.6-7999.0
2020-Jan-24 22:00 135 0 gusting 1 20.8-7999.0
2020-Jan-24 21:45 155 0 gusting 1 21.1-7999.0
2020-Jan-24 21:30 170 1 gusting 2 21.0-7999.0
2020-Jan-24 21:15 124 1 gusting 2 21.1-7999.0
2020-Jan-24 21:00 138 0 gusting 2 21.8-7999.0
2020-Jan-24 20:45 129 1 gusting 2 21.0-7999.0
2020-Jan-24 20:30 109 1 gusting 3 20.9-7999.0
2020-Jan-24 20:15 128 1 gusting 3 21.0-7999.0
2020-Jan-24 19:45 133 1 gusting 3 21.0-7999.0
2020-Jan-24 19:15 113 2 gusting 4 20.9-7999.0
2020-Jan-24 15:30 074 1 gusting 3 18.8-7999.0
2020-Jan-24 15:15 072 1 gusting 3 18.8-7999.0
2020-Jan-24 14:45 119 1 gusting 2 18.4-7999.0
2020-Jan-24 14:15 179 0 gusting 1 18.1-7999.0
2020-Jan-24 13:45 294 1 gusting 2 17.9-7999.0
2020-Jan-24 13:30 308 1 gusting 3 17.7-7999.0
2020-Jan-24 13:15 314 1 gusting 2 17.6-7999.0
2020-Jan-24 13:00 299 0 gusting 1 17.4-7999.0
2020-Jan-24 12:45 142 0 gusting 1 17.4-7999.0
2020-Jan-24 12:15 283 0 gusting 1 17.3-7999.0
2020-Jan-24 12:00 296 0 gusting 1 17.2-7999.0
2020-Jan-24 11:45 281 1 gusting 3 17.2-7999.0
2020-Jan-24 11:15 189 0 gusting 2 17.1-7999.0
2020-Jan-24 11:00 266 0 gusting 1 17.1-7999.0
2020-Jan-24 10:45 259 0 gusting 3 17.1-7999.0
2020-Jan-24 10:15 303 1 gusting 4 17.0-7999.0
2020-Jan-24 10:00 308 1 gusting 2 17.1-7999.0
2020-Jan-24 09:45 303 1 gusting 3 17.1-7999.0
2020-Jan-24 09:15 285 0 gusting 2 17.1-7999.0
2020-Jan-24 09:00 251 0 gusting 1 17.0-7999.0
2020-Jan-24 08:45 230 1 gusting 4 17.0-7999.0
2020-Jan-24 08:15 217 1 gusting 3 17.2-7999.0
2020-Jan-24 08:00 220 1 gusting 2 17.3-7999.0
2020-Jan-24 07:45 242 0 gusting 1 17.4-7999.0
2020-Jan-24 07:15 239 0 gusting 2 17.4-7999.0
2020-Jan-24 07:00 289 0 gusting 1 17.4-7999.0
2020-Jan-24 06:45 241 0 gusting 1 17.4-7999.0
2020-Jan-24 06:15 270 0 gusting 2 17.4-7999.0
2020-Jan-24 06:00 260 1 gusting 2 17.4-7999.0
2020-Jan-24 05:45 288 0 gusting 2 17.3-7999.0
2020-Jan-24 05:15 207 0 gusting 1 17.3-7999.0
2020-Jan-24 05:00 248 1 gusting 3 17.4-7999.0
2020-Jan-24 04:45 245 0 gusting 2 17.4-7999.0
2020-Jan-24 04:15 288 0 gusting 1 17.6-7999.0
2020-Jan-24 04:00 205 0 gusting 2 17.6-7999.0
2020-Jan-24 03:45 304 1 gusting 3 17.7-7999.0
2020-Jan-24 03:15 295 1 gusting 2 17.7-7999.0
2020-Jan-24 03:00 280 1 gusting 2 17.8-7999.0
2020-Jan-24 02:45 289 2 gusting 5 17.8-7999.0
2020-Jan-24 02:15 247 1 gusting 5 17.8-7999.0
2020-Jan-24 02:00 230 1 gusting 3 17.8-7999.0
2020-Jan-24 01:45 259 2 gusting 4 17.8-7999.0
2020-Jan-24 01:30 272 0 gusting 2 17.8-7999.0
2020-Jan-24 01:15 297 1 gusting 2 17.8-7999.0
2020-Jan-24 01:00 271 1 gusting 2 17.8-7999.0
2020-Jan-24 00:45 294 0 gusting 2 17.8-7999.0
2020-Jan-24 00:30 188 1 gusting 3 17.9-7999.0
2020-Jan-24 00:15 062 1 gusting 3 18.0-7999.0
2020-Jan-24 00:00 092 1 gusting 3 18.2-7999.0
2020-Jan-23 23:45 048 2 gusting 4 18.3-7999.0
2020-Jan-23 23:15 049 2 gusting 6 18.5-7999.0
2020-Jan-23 23:00 074 1 gusting 3 18.7-7999.0
2020-Jan-23 22:45 063 1 gusting 3 18.9-7999.0
2020-Jan-23 22:15 062 2 gusting 4 19.7-7999.0
2020-Jan-23 22:00 059 2 gusting 4 19.9-7999.0